TITAN 3C TRANSTAGE DEB, 43453

Orbit data source: Space-Track

TITAN 3C TRANSTAGE DEB, 43453 is space debris in GEO originally from a launch on Sun, 09 Feb 1969 UTC launched from the Air Force Eastern Test Range (AFETR). Debris objects in space refer to the collection of defunct objects orbiting the Earth. Examples of debris include non-operational satellites, rocket bodies, and fragments generated from explosions, collisions, or faulty payload assembly.

Loading next visibility...
Identifier
43453, 1969-013L
Orbit
GEO
Country
Flag of USUS
Related business
Manufacturer
Martin Marietta
Mission
Spacecraft
Bus & Motor
Unknown
Mass
Unknown
Launch date (UTC)
1969-02-09 (57 years ago)
Launch vehicle
Unknown
Launch site
Air Force Eastern Test Range (AFETR)
Object type
Payload
Rocket body
Debris
Shape & HBR
Unknown shape, 1.1 m
Radar Cross Section
RCS unknown

Expand to show TLE details & history
Last TLE update: 2 days ago

TLE from 2 days ago
0 TITAN 3C TRANSTAGE DEB
1 43453U 69013L   25304.56512469 -.00000130  00000-0  00000-0 0  9995
2 43453   1.2956 157.5395 0778841 333.1055  23.8546  1.07379963 29581
Epoch: 2025-10-31T13:33Z
TLE epoch observation values (Epoch: 2025-10-31T13:33:46.773Z)
Latitude
0.00002°
Longitude
-85.16879°
Altitude
31,086.781 km
Speed
3.374 km/s
True Right ascension
10h 33m 32s
True Declination
0° 00' 00"
Sunlit
Object was in daylight at epoch
Visualization orbit readout
Latitude
Unknown
Longitude
Unknown
Altitude
Unknown
Speed
Unknown
Apparent Right ascension
Unknown
Apparent Declination
Unknown
Sunlit
N/A
Visualization observer readout
Local Sidereal Time
23:29:40
Azimuth
Unknown
Elevation
Unknown
Doppler factor
Unknown
Orbital elements
Apogee altitude
37,043.27 km
Perigee altitude
30,768.315 km
Semi-major axis
40,283.929 km
Eccentricity
0.07788
Inclination
1.2956°
RAAN
157.5395°
Arg. of periapsis
333.1055°
True anomaly
27.81202°
Mean anomaly
23.8546°
Eccentric anomaly
25.79655°
Mean motion
0.26844 °/min
Orbital period
1,341.09 mins
BSTAR
0
Loading maneuver chart data...
Computing Atmospheric mass density...

Documentation

Showing up to 5 results
|